AO-91
1 43017U 17073E 19276.31897141 .00000425 00000-0 38538-4 0 9994
2 43017 97.7203 193.5051 0258094 170.8809 189.7226 14.78639424101016
EcAMSat
1 43019U 98067NG 19276.85551733 .00006373 00000-0 76574-4 0 9991
2 43019 51.6394 155.1092 0005025 145.2812 214.8511 15.62310519192473
PICSAT
1 43132U 18004X 19276.22607691 .00001361 00000-0 59570-4 0 9995
2 43132 97.4789 343.7929 0008360 235.0717 124.9735 15.23767218 95724
AO-92
1 43137U 18004AC 19276.22654892 .00001074 00000-0 47862-4 0 9997
2 43137 97.4779 343.7438 0007885 237.0464 123.0015 15.23616048 95719
TianYi 2
1 43155U 18008A 19276.75931609 .00001159 00000-0 72521-4 0 9997
2 43155 97.4782 347.0099 0016906 320.0222 193.8245 15.11259370 93998
Zhou Enlai
1 43156U 18008B 19276.77411427 .00000617 00000-0 40961-4 0 9992
2 43156 97.4824 346.9034 0013974 319.4188 189.1196 15.10766435 93962
TianYi 6
1 43158U 18008D 19276.77657317 .00000529 00000-0 36080-4 0 9993
2 43158 97.4788 346.2712 0012748 316.2318 161.4701 15.10345186 93924
S-Net G
1 43186U 18014G 19276.32902739 -.00000202 00000-0 -12595-4 0 9998
2 43186 97.7008 183.1883 0011531 15.4431 344.7140 14.96682494 91080
S-Net H
1 43187U 18014H 19276.32884550 -.00000205 00000-0 -12902-4 0 9994
2 43187 97.7006 183.1737 0011501 15.3711 344.7857 14.96682667 91081
S-Net J
1 43188U 18014J 19276.32866558 -.00000213 00000-0 -13545-4 0 9996
2 43188 97.7009 183.1938 0011498 15.5033 344.6538 14.96682371 91089
S-Net K
1 43189U 18014K 19276.32901091 -.00000199 00000-0 -12386-4 0 9994
2 43189 97.7005 183.1708 0011507 15.3429 344.8140 14.96682026 89635
FMN 1
1 43192U 18015A 19276.74283377 .00002739 00000-0 11383-3 0 9990
2 43192 97.4133 43.2372 0014787 278.7037 189.0988 15.24573216 92628
Shaonian Xing
1 43199U 18015H 19276.79520362 .00001988 00000-0 82334-4 0 9990
2 43199 97.3917 42.1847 0015640 289.9239 229.6331 15.25008476 92687
1KUNS-PF
1 43466U 98067NP 19276.86875698 .00027130 00000-0 22444-3 0 9997
2 43466 51.6348 149.0614 0001787 162.3642 197.7418 15.70059494 79731
UBAKUSAT
1 43467U 98067NQ 19276.71013401 .00013718 00000-0 14216-3 0 9993
2 43467 51.6354 157.0225 0002982 123.0034 237.1249 15.65006509 79625
Irazu
1 43468U 98067NR 19276.80338848 .00041406 00000-0 27725-3 0 9993
2 43468 51.6340 143.3114 0002180 174.0764 186.0262 15.74839376179794
EnduroSat One
1 43551U 98067NZ 19276.70733473 .00018165 00000-0 18133-3 0 9997
2 43551 51.6357 159.2548 0005879 181.9985 178.0988 15.65684872 69829
EQUISat
1 43552U 98067PA 19276.72310116 .00013608 00000-0 14723-3 0 9993
2 43552 51.6371 161.6484 0006177 180.7779 179.3207 15.63902421 69753
UiTMSat 1
1 43589U 98067PD 19276.71083757 .00015506 00000-0 16436-3 0 9992
2 43589 51.6345 162.2354 0005454 186.7070 173.3853 15.64301472 65481
Maya 1
1 43590U 98067PE 19276.70471942 .00016860 00000-0 17809-3 0 9999
2 43590 51.6343 162.2013 0005295 187.8755 172.2158 15.64317468 65419
Bhutan 1
1 43591U 98067PF 19276.11645378 .00019408 00000-0 20373-3 0 9992
2 43591 51.6357 165.0551 0005684 186.0305 174.0622 15.64360093 65325
SiriusSat 1
1 43595U 98067PG 19276.16241616 .00016086 00000-0 17651-3 0 9992
2 43595 51.6348 166.8304 0004153 146.1422 213.9838 15.63387274 64488
SiriusSat 2
1 43596U 98067PH 19276.71524895 .00015083 00000-0 16685-3 0 9999
2 43596 51.6358 164.5691 0004627 148.7865 211.3405 15.63236676 64569
Tanusha-3
1 43597U 98067PJ 19276.71533341 .00020864 00000-0 20879-3 0 9999
2 43597 51.6339 161.4868 0004227 162.6208 197.4933 15.65524366 64606
SurfSat
1 43614U 18070B 19276.38976345 .00003031 00000-0 81379-4 0 9993
2 43614 93.0333 47.7221 0013233 251.0012 108.9808 15.37926953 58802
CP-7 DAVE
1 43615U 18070C 19276.33652083 .00003134 00000-0 84399-4 0 9998
2 43615 93.0333 47.6990 0013349 250.6901 109.2909 15.37829081 58793
ELFIN-B
1 43616U 18070D 19276.62158060 .00003834 00000-0 10053-3 0 9999
2 43616 93.0296 47.7241 0014099 253.3660 106.6046 15.38622083 58851
ELFIN-A
1 43617U 18070E 19276.35177608 .00004475 00000-0 11711-3 0 9993
2 43617 93.0351 47.9107 0013361 250.7597 109.2211 15.38687835 58813
STARS-Me Mother
1 43640U 98067PQ 19275.82275394 .00010069 00000-0 12832-3 0 9996
2 43640 51.6371 174.3465 0006096 129.1921 230.9625 15.59979442 56281
CubeBel 1
1 43666U 18083E 19276.76137291 .00000967 00000-0 51186-4 0 9993
2 43666 97.5145 300.4878 0015168 171.3519 277.4711 15.17740806 51527
Changshagaoxin
1 43669U 18083H 19276.78416599 .00000721 00000-0 39975-4 0 9999
2 43669 97.5012 299.4911 0011444 161.1354 199.0305 15.16906935 51462
Ten-Koh
1 43677U 18084G 19276.31936353 .00000181 00000-0 24490-4 0 9999
2 43677 97.8614 29.4151 0014694 292.1685 67.7973 14.90197389 50491
PO-101
1 43678U 18084H 19276.74056941 -.00000156 00000-0 -98548-5 0 9993
2 43678 97.8608 30.5871 0009346 316.3833 43.6656 14.91570798 50603
IRVINE 01
1 43693U 18088D 19275.63201016 .00002418 00000-0 10459-3 0 9990
2 43693 085.0342 248.1298 0019125 156.1061 204.1073 15.21715137049475
QO-100
1 43700U 18090A 19276.27899073 .00000124 00000-0 00000 0 0 9998
2 43700 0.0192 162.6994 0001389 39.4092 295.8355 1.00273613 3365
Reaktor Hello World
1 43743U 18096AA 19276.74533831 .00001488 00000-0 59138-4 0 9995
2 43743 97.4511 346.5866 0017304 322.5629 190.5327 15.26800954 47066
MinXSS-2
1 43758U 18099A 19276.34372134 .00000743 00000-0 72239-4 0 9997
2 43758 97.7366 347.0927 0014809 336.5828 23.4717 14.95469754 45373
AO-95
1 43770U 18099N 19276.74063225 .00000605 00000-0 60791-4 0 9990
2 43770 97.7366 347.1961 0013956 342.6512 17.4230 14.94818705 45417
RANGE-B
1 43772U 18099Q 19276.25292410 .00000116 00000-0 15889-4 0 9993
2 43772 97.7423 346.9587 0013394 330.9160 29.1313 14.94943290 45330
RANGE-A
1 43773U 18099R 19276.19572504 .00000201 00000-0 23698-4 0 9994
2 43773 97.7311 346.4824 0012732 331.4914 28.5609 14.94839529 45323
MOVE-II
1 43780U 18099Y 19276.35135174 .00000882 00000-0 85576-4 0 9996
2 43780 97.7361 346.8856 0012881 342.3950 17.6822 14.95139033 45343
SNUSat 2
1 43782U 18099AA 19276.14669374 .00000674 00000-0 66724-4 0 9992
2 43782 97.7364 346.7280 0011895 332.2019 27.8565 14.95098456 45324
SnugLite
1 43784U 18099AC 19276.19777731 .00000340 00000-0 36190-4 0 9990
2 43784 97.7326 346.6799 0014443 339.0000 21.0625 14.95183073 45340
ITASat 1
1 43786U 18099AE 19276.32954175 .00000214 00000-0 24698-4 0 9996
2 43786 97.7379 347.0228 0014509 337.3895 22.6684 14.95180700 45366
EAGLET 1
1 43790U 18099AJ 19276.72124493 -.00000059 00000-0 -12090-6 0 9991
2 43790 97.7368 347.5493 0012946 341.7723 18.3032 14.95554931 45124
ESEO
1 43792U 18099AL 19276.25141903 -.00000297 00000-0 -21535-4 0 9992
2 43792 97.7349 347.0158 0012803 340.4760 19.5969 14.95529335 45118
CSIM
1 43793U 18099AM 19276.28976426 .00000852 00000-0 81517-4 0 9993
2 43793 97.7323 346.9497 0012174 338.6072 21.4639 14.95780579 45093
Astrocast 0.1
1 43798U 18099AS 19276.27374891 .00000436 00000-0 44266-4 0 9993
2 43798 97.7357 347.1617 0011374 322.7977 37.2455 14.95759859 45358
JO-97
1 43803U 18099AX 19276.77307356 -.00000032 00000-0 23952-5 0 9990
2 43803 97.7340 347.3497 0014544 337.0248 23.0321 14.95325595 45426
Suomi 100
1 43804U 18099AY 19276.63884909 -.00000018 00000-0 36426-5 0 9994
2 43804 97.7338 347.2138 0014619 337.5953 22.4628 14.95322967 45418
Al Farabi 2
1 43805U 18099AZ 19276.83052378 .00000420 00000-0 43198-4 0 9993
2 43805 97.7343 347.4302 0014565 337.2451 22.8123 14.95394396 45442
